Regional Weather Roundup
Issued by NWS Memphis, TN

Home | Current Version | Previous Version | Text Only | Print | Product List | Glossary On
Versions: 1 2 3 4 5 6 7 8 9 10 11 12 13 14 15 16 17 18 19 20 21 22 23 24 25 26 27 28 29 30 31 32 33 34 35 36 37 38 39 40 41 42 43 44 45 46 47 48 49 50
000
ASUS44 KMEG 280210
RWRMEG
MEMPHIS CWA HOURLY WEATHER ROUNDUP
NATIONAL WEATHER SERVICE MEMPHIS TN
800 PM CST MON FEB 27 2017

...WEST TENNESSEE...

CITY           SKY/WX    TMP DP  RH WIND       PRES   REMARKS
MEMPHIS INTL   MOCLDY    59  52  77 SE12      30.10R
NWS MEMPHIS      N/A     58 N/A N/A MISG        N/A
JACKSON        CLEAR     57  49  74 S8        30.12R
BOLIVAR        MOCLDY    55  50  82 SE8       30.11R
SAVANNAH       CLEAR     54  48  82 S5        30.13R
UNION CITY     CLEAR     55  43  62 CALM      30.08S
PARIS          CLEAR     54  43  66 S8        30.12R
HUNTINGDON     CLEAR     55  46  71 SE6       30.11R


...EASTERN ARKANSAS...

CITY           SKY/WX    TMP DP  RH WIND       PRES   REMARKS
JONESBORO      LGT RAIN  59  52  77 S10       30.07R
WEST MEMPHIS   CLOUDY    58  53  84 SE9       30.09R
BATESVILLE     CLOUDY    55  50  82 SE3       30.05R
NEWPORT        CLOUDY    57  53  86 S13       30.06R
WALNUT RIDGE   PTCLDY    54  48  82 SE6       30.04F
BLYTHEVILLE    MOCLDY    60  50  69 S12       30.10R
SEARCY         CLOUDY    54  54 100 SE5       30.07R
STUTTGART      CLOUDY    55  46  71 SE12      30.06R
PINE BLUFF     CLOUDY    56  55  97 SE13      30.04S
MONTICELLO     CLOUDY    59  57  93 SE6       30.03F


...NORTH MISSISSIPPI...

CITY           SKY/WX    TMP DP  RH WIND       PRES   REMARKS
TUPELO         MOCLDY    56  51  84 SE8       30.14R
OXFORD         CLOUDY    54  50  87 SE7       30.13S
BATESVILLE     CLOUDY    56  52  86 E3        30.12R
OLIVE BRANCH   MOCLDY   N/A N/A N/A SE9       30.10R
TUNICA         CLOUDY    55  52  88 SE6       30.09S
CORINTH        CLEAR     55  50  82 SE8       30.12S
GREENWOOD      CLOUDY    60  55  83 S8        30.09R
COLUMBUS       CLOUDY    57  56  95 SE8       30.15S
STARKVILLE     FOG       55  54  94 SE6       30.16S VSB 1/2
GOLDEN TRIANGL CLOUDY    55  52  88 SE9       30.12S


...SOUTHEAST MISSOURI...

CITY           SKY/WX    TMP DP  RH WIND       PRES   REMARKS
KENNETT        PTCLDY    57  52  82 SE6       30.07R
MALDEN         CLEAR     57  50  77 S5        30.08R
WEST PLAINS    CLOUDY    54  49  83 SE8G18    30.01S
POPLAR BLUFF   PTCLDY    54  49  83 S3        30.05R
CAPE GIRARDEAU MOCLDY    55  47  74 SE7       30.06R


...NORTHWEST ALABAMA...

CITY           SKY/WX    TMP DP  RH WIND       PRES   REMARKS
MUSCLE SHOALS  CLOUDY    52  48  86 SE5       30.18S


...MIDDLE TENNESSEE...

CITY           SKY/WX    TMP DP  RH WIND       PRES   REMARKS
NASHVILLE      CLEAR     52  44  74 S10       30.18S
CLARKSVILLE    CLEAR     53  42  66 SE8       30.14R
COLUMBIA       CLEAR     52  52 100 SE5       30.15S


...WESTERN KENTUCKY...

CITY           SKY/WX    TMP DP  RH WIND       PRES   REMARKS
PADUCAH        CLEAR     57  45  64 S9        30.08S
FORT CAMPBELL  CLEAR     56  43  60 SE7       30.13R


...CENTRAL ARKANSAS...

CITY           SKY/WX    TMP DP  RH WIND       PRES   REMARKS
LITTLE ROCK    CLOUDY    56  54  93 SE7       30.05R


SKY/WX REPORTED AS FAIR MEANS FEW OR NO CLOUDS BELOW
12 THOUSAND FEET.





USA.gov is the U.S. government's official web portal to all federal, state and local government web resources and services.